GW3829 Weather Reports


time (UTC)temp
C
wind
direction
speed
KPH
gust
KPH
rain 1hr
cm
rain 24hr
cm
rain mn
cm
humidity
%
barometer
mb
20260503014130 15 349 0.0 0.0 0.00 0.00 0.00 44 1014.2
20260503013627 15 348 0.0 0.0 0.00 0.00 0.00 44 1014.1
20260503013125 15 346 0.0 0.0 0.00 0.00 0.00 45 1014.0
20260503012622 16 346 0.0 0.0 0.00 0.00 0.00 42 1014.1
20260503012118 16 297 0.0 0.0 0.00 0.00 0.00 40 1014.2
20260503011615 16 297 0.0 0.0 0.00 0.00 0.00 46 1014.1
20260503011112 17 297 0.0 0.0 0.00 0.00 0.00 40 1014.4
20260503010608 17 297 0.0 0.0 0.00 0.00 0.00 40 1014.3
20260503010106 17 277 0.0 0.0 0.00 0.00 0.00 40 1014.5
20260503005602 17 276 0.0 0.0 0.00 0.00 0.00 44 1014.3
20260503005100 17 250 0.0 0.0 0.00 0.00 0.00 41 1014.5
20260503004555 17 246 0.0 0.0 0.00 0.00 0.00 41 1014.4
20260503004054 17 246 0.0 0.0 0.00 0.00 0.00 40 1014.5
20260503003550 17 241 0.0 0.0 0.00 0.00 0.00 40 1014.8
20260503003048 17 238 0.0 0.0 0.00 0.00 0.00 40 1014.8
20260503002545 17 234 0.0 0.0 0.00 0.00 0.00 42 1014.7
20260503002041 17 236 0.0 0.0 0.00 0.00 0.00 41 1014.9
20260503001537 17 242 0.0 0.0 0.00 0.00 0.00 40 1014.9
20260503001035 17 238 0.0 0.0 0.00 0.00 0.00 40 1014.9
20260503000532 17 252 0.0 0.0 0.00 0.00 0.00 40 1014.7
20260503000029 17 239 0.0 0.0 0.00 0.00 0.00 40 1015.0
20260502235526 17 253 0.0 0.0 0.00 0.00 0.00 40 1015.0
20260502235024 17 288 0.0 0.0 0.00 0.00 0.00 40 1014.9
20260502234520 17 315 0.0 0.0 0.00 0.00 0.00 41 1015.1
20260502234018 17 315 0.0 0.0 0.00 0.00 0.00 41 1015.0
20260502233513 17 315 0.0 0.0 0.00 0.00 0.00 39 1015.0
20260502233010 17 314 0.0 0.0 0.00 0.00 0.00 40 1015.3
20260502232506 17 318 0.0 0.0 0.00 0.00 0.00 40 1015.0
20260502232003 17 335 0.0 0.0 0.00 0.00 0.00 41 1015.3
20260502231500 17 328 0.0 0.0 0.00 0.00 0.00 41 1015.3
20260502230958 17 343 0.0 0.0 0.00 0.00 0.00 40 1015.2
20260502230456 17 341 0.0 0.0 0.00 0.00 0.00 41 1015.2
20260502225954 17 338 0.0 0.0 0.00 0.00 0.00 39 1015.6
20260502225449 18 258 0.0 0.0 0.00 0.00 0.00 38 1015.5
20260502224947 18 254 0.0 0.0 0.00 0.00 0.00 39 1015.6
20260502224443 17 297 0.0 0.0 0.00 0.00 0.00 39 1015.6
20260502223939 16 302 0.0 0.0 0.00 0.00 0.00 39 1015.6
20260502223437 16 38 0.0 0.0 0.00 0.00 0.00 42 1016.0
20260502222935 16 205 0.0 0.0 0.00 0.00 0.00 40 1015.6
20260502222433 17 187 0.0 0.0 0.00 0.00 0.00 40 1016.0
20260502221928 16 196 0.0 0.0 0.00 0.00 0.00 40 1016.0
20260502221425 16 68 0.0 0.0 0.00 0.00 0.00 40 1016.2
20260502220922 16 53 0.0 0.0 0.00 0.00 0.00 41 1016.2
20260502220418 17 93 0.0 0.0 0.00 0.00 0.00 42 1016.3
20260502215915 17 18 0.0 0.0 0.00 0.00 0.00 43 1016.4
20260502215412 17 29 0.0 0.0 0.00 0.00 0.00 43 1016.3
20260502214909 17 38 0.0 0.0 0.00 0.00 0.00 41 1016.4
20260502214405 16 39 0.0 0.0 0.00 0.00 0.00 41 1016.5
20260502213903 16 50 0.0 0.0 0.00 0.00 0.00 42 1016.4
20260502213400 17 19 0.0 0.0 0.00 0.00 0.00 42 1016.6
20260502212859 17 19 0.0 0.0 0.00 0.00 0.00 43 1016.6
20260502212357 16 328 0.0 0.0 0.00 0.00 0.00 42 1016.9
20260502211854 16 340 0.0 0.0 0.00 0.00 0.00 43 1016.7
20260502211349 16 4 0.0 0.0 0.00 0.00 0.00 42 1016.9
20260502210847 16 305 0.0 0.0 0.00 0.00 0.00 42 1017.1
20260502210344 17 289 0.0 0.0 0.00 0.00 0.00 41 1017.1
20260502205841 17 232 0.0 0.0 0.00 0.00 0.00 39 1016.9
20260502205337 17 317 0.0 0.0 0.00 0.00 0.00 42 1017.0
20260502204834 16 35 0.0 0.0 0.00 0.00 0.00 41 1017.1
20260502204331 16 343 0.0 0.0 0.00 0.00 0.00 42 1017.1
20260502203828 17 300 0.0 0.0 0.00 0.00 0.00 40 1016.9
20260502203321 16 311 0.0 0.0 0.00 0.00 0.00 41 1017.1
20260502202821 17 316 0.0 0.0 0.00 0.00 0.00 41 1017.2
20260502202319 17 23 0.0 0.0 0.00 0.00 0.00 42 1017.3
20260502201816 17 73 0.0 0.0 0.00 0.00 0.00 41 1017.3
20260502201312 16 358 0.0 0.0 0.00 0.00 0.00 44 1017.3
20260502200809 16 15 0.0 0.0 0.00 0.00 0.00 45 1017.2
20260502200304 16 27 0.0 0.0 0.00 0.00 0.00 43 1017.4
20260502195803 16 1 0.0 0.0 0.00 0.00 0.00 42 1017.6
20260502195259 15 110 0.0 0.0 0.00 0.00 0.00 45 1017.4
20260502194755 16 338 0.0 0.0 0.00 0.00 0.00 44 1017.7
20260502194253 16 29 0.0 0.0 0.00 0.00 0.00 44 1017.6
20260502193748 15 57 0.0 0.0 0.00 0.00 0.00 45 1017.7
20260502193241 15 20 0.0 0.0 0.00 0.00 0.00 47 1017.9
20260502192740 15 19 0.0 0.0 0.00 0.00 0.00 46 1017.9
20260502192238 15 17 0.0 0.0 0.00 0.00 0.00 46 1017.9
20260502191735 15 33 0.0 0.0 0.00 0.00 0.00 48 1017.9
20260502191233 15 11 0.0 0.0 0.00 0.00 0.00 47 1018.1
20260502190730 15 36 0.0 0.0 0.00 0.00 0.00 48 1018.3
20260502190227 15 50 0.0 0.0 0.00 0.00 0.00 49 1018.2
20260502185727 15 17 0.0 0.0 0.00 0.00 0.00 49 1018.3
20260502185224 15 36 0.0 0.0 0.00 0.00 0.00 48 1018.3
20260502184720 15 19 0.0 0.0 0.00 0.00 0.00 49 1018.3
20260502184216 15 27 0.0 0.0 0.00 0.00 0.00 51 1018.3
20260502183713 14 22 0.0 0.0 0.00 0.00 0.00 51 1018.6
20260502183209 14 34 0.0 0.0 0.00 0.00 0.00 50 1018.4
20260502182704 15 326 0.0 0.0 0.00 0.00 0.00 50 1018.4
20260502182200 15 345 0.0 0.0 0.00 0.00 0.00 50 1018.8
20260502181657 15 28 0.0 0.0 0.00 0.00 0.00 51 1018.4
20260502181156 14 14 0.0 0.0 0.00 0.00 0.00 51 1018.3
20260502180653 15 14 0.0 0.0 0.00 0.00 0.00 50 1018.4
20260502180150 15 35 0.0 0.0 0.00 0.00 0.00 50 1018.3
20260502170114 15 4 0.0 0.0 0.00 0.00 0.00 50 1018.6
20260502164101 15 22 0.0 0.0 0.00 0.00 0.00 51 1018.2
20260502163556 15 24 0.0 0.0 0.00 0.00 0.00 52 1018.3
20260502163054 14 8 0.0 0.0 0.00 0.00 0.00 50 1018.6
20260502162550 14 5 0.0 0.0 0.00 0.00 0.00 50 1018.3
20260502162048 14 5 0.0 1.6 0.00 0.00 0.00 50 1018.2
20260502161544 15 356 0.0 0.0 0.00 0.00 0.00 48 1018.3
20260502161042 15 342 0.0 0.0 0.00 0.00 0.00 51 1018.5
20260502160540 14 356 0.0 1.6 0.00 0.00 0.00 50 1018.3
20260502151953 14 27 0.0 0.0 0.00 0.00 0.00 51 1018.3
20260502151449 13 16 0.0 0.0 0.00 0.00 0.00 52 1018.4
20260502150947 13 11 0.0 0.0 0.00 0.00 0.00 52 1018.5
20260502150444 13 359 0.0 0.0 0.00 0.00 0.00 51 1018.2
20260502130329 7 312 0.0 0.0 0.00 0.00 0.00 68 1017.9
20260502123815 5 309 0.0 0.0 0.00 0.00 0.00 71 1017.9
20260502123312 5 314 0.0 0.0 0.00 0.00 0.00 70 1017.6
20260502122809 5 311 0.0 0.0 0.00 0.00 0.00 71 1017.7
20260502122306 5 308 0.0 0.0 0.00 0.00 0.00 71 1017.3
20260502121803 5 293 0.0 0.0 0.00 0.00 0.00 72 1017.4
20260502121300 5 279 0.0 0.0 0.00 0.00 0.00 71 1017.5
20260502120757 6 296 0.0 0.0 0.00 0.00 0.00 69 1017.3
20260502120253 6 316 0.0 0.0 0.00 0.00 0.00 68 1017.3
20260502115751 5 333 0.0 0.0 0.00 0.00 0.00 69 1017.1
20260502115248 6 335 0.0 0.0 0.00 0.00 0.00 69 1017.3
20260502114744 6 338 0.0 0.0 0.00 0.00 0.00 68 1017.1
20260502114241 6 342 0.0 0.0 0.00 0.00 0.00 68 1017.1
20260502113738 6 337 0.0 0.0 0.00 0.00 0.00 66 1017.2
20260502113236 7 347 0.0 0.0 0.00 0.00 0.00 65 1017.1
20260502112734 7 354 0.0 0.0 0.00 0.00 0.00 64 1017.0
20260502112231 7 351 0.0 0.0 0.00 0.00 0.00 64 1017.0
20260502111728 7 359 0.0 0.0 0.00 0.00 0.00 64 1017.0
20260502111226 7 0 0.0 0.0 0.00 0.00 0.00 64 1017.0
20260502110723 8 15 0.0 0.0 0.00 0.00 0.00 61 1016.9
20260502110221 8 18 0.0 0.0 0.00 0.00 0.00 60 1016.9
20260502105719 7 6 0.0 0.0 0.00 0.00 0.00 62 1016.7
20260502105215 8 354 0.0 0.0 0.00 0.00 0.00 62 1016.6
20260502104712 8 22 0.0 0.0 0.00 0.00 0.00 60 1016.1
20260502104210 8 37 0.0 0.0 0.00 0.00 0.00 61 1016.2
20260502103707 7 13 0.0 0.0 0.00 0.00 0.00 61 1016.3
20260502103205 7 12 0.0 0.0 0.00 0.00 0.00 61 1016.1
20260502102701 7 10 0.0 0.0 0.00 0.00 0.00 61 1016.2
20260502102158 7 14 0.0 0.0 0.00 0.00 0.00 61 1016.1
20260502101656 7 11 0.0 0.0 0.00 0.00 0.00 62 1016.0
20260502101154 8 4 0.0 0.0 0.00 0.00 0.00 60 1016.1
20260502100652 8 353 0.0 0.0 0.00 0.00 0.00 58 1016.0
20260502100150 8 5 0.0 0.0 0.00 0.00 0.00 57 1015.9
20260502091124 9 24 0.0 0.0 0.00 0.00 0.00 53 1015.1
20260502090621 10 34 0.0 0.0 0.00 0.00 0.00 50 1015.0
20260502090119 10 35 0.0 0.0 0.00 0.00 0.00 49 1015.2
20260502071516 6 291 0.0 0.0 0.00 0.00 0.00 57 1013.9
20260502071014 6 259 0.0 0.0 0.00 0.00 0.00 56 1013.8
20260502070512 6 289 0.0 0.0 0.00 0.00 0.00 57 1013.9
20260502070010 8 305 0.0 0.0 0.00 0.00 0.00 53 1014.0
20260502065508 8 278 0.0 0.0 0.00 0.00 0.00 50 1013.9
20260502065006 8 272 0.0 0.0 0.00 0.00 0.00 49 1014.0
20260502064504 9 340 0.0 0.0 0.00 0.00 0.00 50 1013.8
20260502064000 8 261 0.0 0.0 0.00 0.00 0.00 49 1013.9
20260502063459 8 274 0.0 0.0 0.00 0.00 0.00 52 1013.9
20260502062955 8 260 0.0 0.0 0.00 0.00 0.00 51 1014.0
20260502062452 7 270 0.0 0.0 0.00 0.00 0.00 52 1013.9
20260502061951 8 279 0.0 0.0 0.00 0.00 0.00 51 1014.2
20260502061449 7 280 0.0 0.0 0.00 0.00 0.00 53 1014.0
20260502060944 6 278 0.0 0.0 0.00 0.00 0.00 54 1013.9
20260502060440 8 295 0.0 0.0 0.00 0.00 0.00 51 1013.8
20260502055936 8 287 0.0 0.0 0.00 0.00 0.00 50 1013.9
20260502055434 7 296 0.0 0.0 0.00 0.00 0.00 52 1014.0
20260502054929 7 303 0.0 0.0 0.00 0.00 0.00 54 1014.1
20260502054426 6 301 0.0 0.0 0.00 0.00 0.00 56 1013.9
20260502053923 6 304 0.0 0.0 0.00 0.00 0.00 57 1013.9
20260502053420 6 289 0.0 0.0 0.00 0.00 0.00 56 1014.2
20260502052918 6 291 0.0 0.0 0.00 0.00 0.00 58 1014.0
20260502052416 7 301 0.0 0.0 0.00 0.00 0.00 51 1014.0
20260502051914 6 304 0.0 0.0 0.00 0.00 0.00 55 1013.5
20260502051412 7 304 0.0 0.0 0.00 0.00 0.00 52 1014.0
20260502050908 8 283 0.0 0.0 0.00 0.00 0.00 49 1013.8
20260502050405 7 278 0.0 0.0 0.00 0.00 0.00 50 1013.9
20260502045902 7 285 0.0 0.0 0.00 0.00 0.00 50 1013.8
20260502045359 8 302 0.0 0.0 0.00 0.00 0.00 50 1014.0
20260502044856 8 301 0.0 0.0 0.00 0.00 0.00 50 1013.8
20260502044352 7 301 0.0 0.0 0.00 0.00 0.00 50 1013.8
20260502043849 9 312 0.0 0.0 0.00 0.00 0.00 48 1014.0
20260502043346 8 264 0.0 0.0 0.00 0.00 0.00 48 1013.8
20260502042840 8 253 0.0 0.0 0.00 0.00 0.00 49 1013.4
20260502042338 8 243 0.0 0.0 0.00 0.00 0.00 51 1013.8
20260502041835 8 271 0.0 0.0 0.00 0.00 0.00 50 1013.8
20260502041332 11 287 0.0 0.0 0.00 0.00 0.00 43 1013.7
20260502040830 10 288 0.0 0.0 0.00 0.00 0.00 44 1013.4
20260502040326 11 309 0.0 0.0 0.00 0.00 0.00 45 1013.4
20260502035822 11 318 0.0 0.0 0.00 0.00 0.00 41 1013.5
20260502035319 11 312 0.0 0.0 0.00 0.00 0.00 42 1013.4
20260502034817 12 310 0.0 0.0 0.00 0.00 0.00 41 1013.2
20260502034315 11 303 0.0 0.0 0.00 0.00 0.00 42 1013.3
20260502033813 13 275 0.0 0.0 0.00 0.00 0.00 36 1013.4
20260502033310 13 271 0.0 0.0 0.00 0.00 0.00 36 1013.2
20260502032807 15 270 0.0 0.0 0.00 0.00 0.00 36 1013.4
20260502032305 15 302 0.0 0.0 0.00 0.00 0.00 32 1013.4
20260502031801 13 297 0.0 0.0 0.00 0.00 0.00 34 1013.2
20260502031259 15 251 0.0 0.0 0.00 0.00 0.00 32 1013.1
20260502030757 14 255 0.0 0.0 0.00 0.00 0.00 36 1013.1
20260502030254 15 248 0.0 0.0 0.00 0.00 0.00 35 1013.2
20260502025752 15 255 0.0 0.0 0.00 0.00 0.00 31 1012.9
20260502025250 14 259 0.0 0.0 0.00 0.00 0.00 35 1013.2
20260502024747 13 259 0.0 0.0 0.00 0.00 0.00 43 1013.1
20260502024245 17 299 0.0 0.0 0.00 0.00 0.00 31 1012.8
20260502023743 16 300 0.0 0.0 0.00 0.00 0.00 32 1013.0
20260502023240 16 290 0.0 0.0 0.00 0.00 0.00 35 1012.9
20260502022738 16 306 0.0 0.0 0.00 0.00 0.00 33 1012.8
20260502022233 17 336 0.0 0.0 0.00 0.00 0.00 31 1012.9
20260502021731 17 324 0.0 0.0 0.00 0.00 0.00 32 1013.0
20260502021228 16 325 0.0 0.0 0.00 0.00 0.00 32 1013.0
20260502020725 16 327 0.0 0.0 0.00 0.00 0.00 36 1012.8
20260502020222 16 3 0.0 0.0 0.00 0.00 0.00 34 1012.9
20260502015720 16 4 0.0 0.0 0.00 0.00 0.00 36 1012.7
20260502015216 17 25 0.0 0.0 0.00 0.00 0.00 35 1012.7
20260502014714 17 22 0.0 0.0 0.00 0.00 0.00 34 1012.7